Location: Quedlinburg
(51.7921°N, 11.1414°E)
Time: 17:35:01
(UTC+01:00)

CUTE 1.7 + AOD 2 - Visible Passes

Search period start: 14 March 2026 00:00
Search period end: 24 March 2026 00:00
Orbit: 535 x 547 km, 97.8° (Epoch: 14 March)

Date Brightness Start Highest point End Pass type
(mag) Time Alt. Az. Time Alt. Az. Time Alt. Az.
14 Mar ? 03:43:39 10° NE 03:46:20 17° E 03:48:59 10° SE visible
14 Mar ? 05:17:19 10° N 05:21:11 54° WNW 05:25:00 10° SSW visible
15 Mar ? 03:36:52 10° NE 03:39:10 15° E 03:41:27 10° SE visible
15 Mar ? 05:10:12 10° N 05:14:06 64° WNW 05:17:59 10° SSW visible
16 Mar ? 03:30:11 10° ENE 03:31:59 13° E 03:33:45 10° ESE visible
16 Mar ? 05:03:04 10° NNE 05:07:00 76° WNW 05:10:56 10° SSW visible
17 Mar ? 03:23:48 10° ENE 03:24:46 11° E 03:25:42 10° E visible
17 Mar ? 04:55:56 10° NNE 04:59:53 89° WNW 05:03:50 10° SSW visible
18 Mar ? 04:48:47 10° NNE 04:52:45 77° ESE 04:56:41 10° S visible
19 Mar ? 04:41:39 10° NNE 04:45:35 65° ESE 04:49:29 10° S visible
20 Mar ? 04:34:31 10° NNE 04:38:23 54° E 04:42:15 10° S visible
21 Mar ? 04:27:22 10° NNE 04:31:11 45° E 04:34:58 10° S visible
22 Mar ? 04:20:14 10° NNE 04:23:57 38° E 04:27:38 10° SSE visible
23 Mar ? 04:13:06 10° NNE 04:16:42 32° E 04:20:15 10° SSE visible
